TimeMST,TemperatureF,Dew PointF,Humidity,Sea Level PressureIn,VisibilityMPH,Wind Direction,Wind SpeedMPH,Gust SpeedMPH,PrecipitationIn,Events,Conditions,WindDirDegrees,DateUTC
12:53 AM,9.0,1.9,73,30.39,10.0,SSE,8.1,-,N/A,,Clear,160,2012-01-12 07:53:00
1:53 AM,10.0,3.9,76,30.41,10.0,SE,9.2,-,N/A,,Clear,140,2012-01-12 08:53:00
3:53 AM,9.0,1.9,73,30.42,10.0,SE,11.5,-,N/A,,Clear,140,2012-01-12 10:53:00
4:53 AM,8.1,1.0,73,30.42,10.0,South,5.8,-,N/A,,Clear,170,2012-01-12 11:53:00
5:53 AM,8.1,-0.0,70,30.45,10.0,SSE,9.2,-,N/A,,Clear,150,2012-01-12 12:53:00
6:53 AM,6.1,-0.9,73,30.47,10.0,SE,5.8,-,N/A,,Clear,130,2012-01-12 13:53:00
7:53 AM,7.0,-2.0,67,30.50,10.0,SE,8.1,-,N/A,,Clear,140,2012-01-12 14:53:00
8:53 AM,10.0,1.0,67,30.52,10.0,SSE,5.8,-,N/A,,Clear,150,2012-01-12 15:53:00
9:53 AM,17.1,3.9,56,30.46,10.0,SE,3.5,-,N/A,,Clear,140,2012-01-12 16:53:00
10:53 AM,21.0,-0.0,40,30.43,10.0,Calm,Calm,-,N/A,,Clear,0,2012-01-12 17:53:00
11:53 AM,23.0,7.0,50,30.37,10.0,NNW,3.5,-,N/A,,Clear,340,2012-01-12 18:53:00
12:53 PM,25.0,5.0,43,30.35,10.0,NNW,4.6,-,N/A,,Clear,330,2012-01-12 19:53:00
1:53 PM,28.0,3.0,34,30.30,10.0,NNE,3.5,-,N/A,,Clear,20,2012-01-12 20:53:00
2:53 PM,28.0,3.0,34,30.28,10.0,Calm,Calm,-,N/A,,Clear,0,2012-01-12 21:53:00
3:53 PM,28.0,6.1,39,30.30,10.0,West,4.6,-,N/A,,Clear,260,2012-01-12 22:53:00
4:53 PM,26.1,5.0,41,30.32,10.0,East,3.5,-,N/A,,Clear,90,2012-01-12 23:53:00
5:53 PM,19.9,6.1,55,30.34,10.0,ESE,9.2,-,N/A,,Clear,110,2012-01-13 00:53:00
6:53 PM,17.1,3.9,56,30.38,10.0,SSE,4.6,-,N/A,,Partly Cloudy,160,2012-01-13 01:53:00
7:53 PM,15.1,5.0,64,30.40,10.0,SSE,6.9,-,N/A,,Clear,150,2012-01-13 02:53:00
8:53 PM,15.1,5.0,64,30.40,10.0,Calm,Calm,-,N/A,,Clear,0,2012-01-13 03:53:00
9:53 PM,12.0,5.0,73,30.40,10.0,SSE,6.9,-,N/A,,Clear,160,2012-01-13 04:53:00
10:53 PM,10.9,3.0,70,30.41,10.0,SSE,6.9,-,N/A,,Clear,160,2012-01-13 05:53:00
11:53 PM,10.0,1.0,67,30.41,10.0,SSE,9.2,-,N/A,,Clear,150,2012-01-13 06:53:00